Language selection

My Weather Profile Weather Topics  | 

Pacific - North Coast: Past 24 Hour Conditions

 

Bella Bella Airport

08:00 PM PDT 22 September 2021
Disclaimer

This table is a summary of hourly weather conditions for the past 24 hours.
Please note that these observations might not always be representative of weather conditions over their associated marine area.

Date / Time
(PDT)
Wind(knots) Conditions Visibility(km) Pressure(kPa) Air tempC) Relative humidity(%) Dew pointC)
22 September 2021
20:00 calm Mostly Cloudy 16 102.6 11 78 8
19:00 WNW 2 Sunny 16 102.6 12 72 8
18:00 WNW 4 Sunny 16 102.5 14 68 8
17:00 WNW 5 Mainly Sunny 16 102.5 15 64 9
16:00 WNW 4 Mainly Sunny 16 102.5 16 60 8
15:00 W 5 Sunny 16 102.5 16 58 8
14:00 NW 5 Sunny 16 102.5 15 65 8
13:00 NNW 7 Sunny 16 102.4 16 64 9
12:00 N 3 Sunny 16 102.4 15 76 10
11:00 W 3 Mainly Sunny 16 102.3 14 82 11
10:00 WNW 2 Mainly Sunny 16 102.2 13 88 11
9:00 WNW 2 Cloudy 16 102.2 12 95 11
8:00 calm Cloudy 13 102.1 11 99 11
7:00 calm Cloudy 16 102.0 12 96 11
6:00 SW 2 Cloudy 16 102.0 12 98 12
5:00 calm Cloudy 16 101.9 12 98 11
4:00 SW 2 Cloudy 16 101.9 12 94 11
3:00 WSW 5 Light Rain 8 101.8 12 98 12
2:00 SSW 6 Cloudy 16 101.7 12 99 12
1:00 SSW 4 Light Rain 6 101.7 12 98 12
0:00 S 4 Cloudy 16 101.6 12 97 12
21 September 2021
23:00 SW 6 Light Rain 4 101.6 13 96 12
22:00 SW 5 Light Rain 3 101.5 13 98 13
21:00 S 6 Light Rain 8 101.5 13 98 13
20:00 S 6 Light Rain 10 101.5 13 98 13

Zoom-in to make a selection

Map of Pacific - North Coast marine weather areas Middle Nomad - 46004 South Nomad - 46036 Dixon Entrance Central - 46145 South Moresby - 46147 Nanakwa Shoal - 46181 North Hecate Strait - 46183 North Nomad - 46184 South Hecate Strait - 46185 West Sea Otter - 46204 West Dixon Entrance - 46205 East Dellwood - 46207 West Moresby - 46208 Sartine Island Cape St.James Kindakun Rocks Langara Island Masset Municipal Airport Rose Spit Sandspit Airport Bella Bella Airport Bella Coola Airport Bonilla Island Cathedral Point Cumshewa Island Grey Islet Holland Rock Lucy Islands Lightstation Prince Rupert Airport
Legend:
buoy Buoy
land station Land Station

Pacific - North Coast Area

Another Region

What we are doing

Date modified: